Date String (YYYY-MM-DD hh:mm:ss) UTC,Instrument flags,absolute air pressure of the measurement (hPa),sample flow rate (lpm),inlet stack bypass flow (lpm),air temperature of the measurement (°C),ambient temperature measured by the external sensor (°C),aerosol sample conditioner tube jacket temperature (°C),OPC LED temperature (°C),internal box temperature (°C),relative humidity of the measurement (%),span deviation,mass concentration of particles derived from Lorenz-Mie calculation of OPC scattering (μg/m³),mass concentration of particles derived from Lorenz-Mie calculation of OPC scattering (μg/m³),mass concentration of particles derived from Lorenz-Mie calculation of OPC scattering (μg/m³)
DateTimeUTC,F1_M11,P_M11,Q1_M11,Q2_M11,T1_M11,T2_M11,T3_M11,T4_M11,T5_M11,U1_M11,ZSPAN_M11,X0_M11,X2_M11,X1_M11
2023-07-05 22:00:00,SystemResetWarning,0835.5,5.00,000.00,030.6,028.7,000.0,038.7,031.6,33.0,-003.0,0013.12,0008.64,0008.08
2023-07-05 22:01:00,SystemResetWarning,0835.5,4.99,000.00,030.6,028.7,000.0,038.8,031.6,33.1,-003.0,0013.11,0008.62,0008.05
2023-07-05 22:02:00,SystemResetWarning,0835.3,4.99,000.00,030.6,028.8,000.0,038.8,031.6,33.2,-003.0,0013.11,0008.60,0008.02
2023-07-05 22:03:00,SystemResetWarning,0835.2,5.00,000.00,030.6,028.8,000.0,038.8,031.7,33.1,-003.0,0013.06,0008.59,0007.99
2023-07-05 22:04:00,SystemResetWarning,0835.1,5.01,000.00,030.6,028.8,000.0,038.9,031.7,33.1,-003.0,0012.97,0008.55,0007.97
2023-07-05 22:05:00,SystemResetWarning,0835.0,5.00,000.00,030.6,028.7,000.0,038.9,031.7,33.0,-003.2,0012.95,0008.54,0007.96
2023-07-05 22:06:00,SystemResetWarning,0834.9,4.98,000.00,030.6,027.0,000.0,038.8,031.6,33.0,-003.3,0012.52,0008.54,0007.96
2023-07-05 22:07:00,SystemResetWarning,0834.9,5.00,000.00,030.5,025.7,000.0,038.6,031.4,33.2,-003.3,0012.49,0008.55,0007.96
2023-07-05 22:08:00,SystemResetWarning,0834.9,5.01,000.00,030.4,025.5,000.0,038.6,031.1,33.4,-003.2,0012.52,0008.53,0007.93
2023-07-05 22:09:00,SystemResetWarning,0835.0,5.01,000.00,030.3,025.8,000.0,038.6,031.0,33.7,-003.0,0012.41,0008.45,0007.89
2023-07-05 22:10:00,SystemResetWarning,0835.0,4.99,000.00,030.2,026.2,000.0,038.7,031.0,33.9,-002.9,0012.11,0008.35,0007.83
2023-07-05 22:11:00,SystemResetWarning,0834.9,5.00,000.00,030.1,026.6,000.0,038.7,031.1,34.0,-002.7,0011.74,0008.26,0007.78
2023-07-05 22:12:00,SystemResetWarning,0835.2,4.99,000.00,030.1,027.0,000.0,038.7,031.1,34.1,-002.7,0011.66,0008.23,0007.75
2023-07-05 22:13:00,SystemResetWarning,0834.8,5.00,000.00,030.1,027.3,000.0,038.6,031.2,34.0,-002.8,0011.56,0008.18,0007.73
2023-07-05 22:14:00,SystemResetWarning,0834.7,5.01,000.00,030.1,027.5,000.0,038.6,031.2,34.1,-002.9,0011.47,0008.15,0007.70
2023-07-05 22:15:00,SystemResetWarning,0834.4,5.00,000.00,030.1,027.7,000.0,038.6,031.2,34.1,-003.1,0011.41,0008.13,0007.68
2023-07-05 22:16:00,SystemResetWarning,0834.2,4.99,000.00,030.1,027.9,000.0,038.6,031.3,34.1,-003.0,0011.38,0008.12,0007.67
2023-07-05 22:17:00,SystemResetWarning,0834.4,5.00,000.00,030.1,028.1,000.0,038.6,031.3,34.3,-002.9,0011.37,0008.13,0007.69
2023-07-05 22:18:00,SystemResetWarning,0834.5,5.00,000.00,030.1,028.2,000.0,038.6,031.3,34.3,-002.8,0011.28,0008.12,0007.68
2023-07-05 22:19:00,SystemResetWarning,0834.5,5.00,000.00,030.1,028.3,000.0,038.6,031.4,34.2,-003.0,0011.28,0008.14,0007.69
2023-07-05 22:20:00,SystemResetWarning,0835.0,5.00,000.00,030.1,028.4,000.0,038.6,031.4,34.2,-003.2,0011.27,0008.17,0007.71
2023-07-05 22:21:00,SystemResetWarning,0835.0,5.01,000.00,030.1,028.4,000.0,038.6,031.4,34.2,-003.3,0011.45,0008.25,0007.76
2023-07-05 22:22:00,SystemResetWarning,0835.1,5.00,000.00,030.1,028.5,000.0,038.6,031.4,34.3,-003.3,0011.73,0008.38,0007.81
2023-07-05 22:23:00,SystemResetWarning,0835.0,5.00,000.00,030.1,028.5,000.0,038.6,031.4,34.3,-003.1,0012.12,0008.47,0007.87
2023-07-05 22:24:00,SystemResetWarning,0835.0,5.01,000.00,030.2,028.6,000.0,038.6,031.5,34.2,-003.0,0012.32,0008.56,0007.91
2023-07-05 22:25:00,SystemResetWarning,0835.0,5.00,000.00,030.2,028.6,000.0,038.6,031.5,34.2,-002.9,0012.46,0008.61,0007.96
2023-07-05 22:26:00,SystemResetWarning,0835.0,5.00,000.00,030.2,028.6,000.0,038.6,031.5,34.2,-002.8,0012.83,0008.65,0008.01
2023-07-05 22:27:00,SystemResetWarning,0835.1,4.99,000.00,030.2,028.7,000.0,038.7,031.5,34.2,-002.9,0012.98,0008.74,0008.05
2023-07-05 22:28:00,SystemResetWarning,0834.8,5.00,000.00,030.2,028.7,000.0,038.7,031.5,33.9,-003.0,0013.06,0008.77,0008.07
2023-07-05 22:29:00,SystemResetWarning,0835.2,5.00,000.00,030.2,028.7,000.0,038.7,031.6,34.0,-002.9,0013.11,0008.81,0008.10
2023-07-05 22:30:00,SystemResetWarning,0835.0,5.00,000.00,030.2,028.8,000.0,038.7,031.6,34.1,-002.6,0013.22,0008.87,0008.15
2023-07-05 22:31:00,SystemResetWarning,0835.0,5.01,000.00,030.2,028.8,000.0,038.7,031.6,34.2,-002.4,0013.27,0008.89,0008.19
2023-07-05 22:32:00,SystemResetWarning,0835.1,5.00,000.00,030.2,028.8,000.0,038.7,031.6,34.3,-002.4,0013.28,0008.92,0008.22
2023-07-05 22:33:00,SystemResetWarning,0835.1,4.99,000.00,030.3,028.8,000.0,038.7,031.6,34.4,-002.4,0013.21,0008.92,0008.27
2023-07-05 22:34:00,SystemResetWarning,0835.0,4.99,000.00,030.3,028.8,000.0,038.7,031.7,34.5,-002.6,0012.97,0008.90,0008.28
2023-07-05 22:35:00,SystemResetWarning,0835.0,5.00,000.00,030.3,028.8,000.0,038.7,031.7,34.5,-002.6,0012.89,0008.90,0008.30
2023-07-05 22:36:00,SystemResetWarning,0835.2,5.01,000.00,030.3,028.9,000.0,038.8,031.7,34.4,-002.5,0012.86,0008.88,0008.30
2023-07-05 22:37:00,SystemResetWarning,0834.8,5.00,000.00,030.3,028.7,000.0,038.8,031.7,34.5,-002.4,0012.54,0008.88,0008.30
2023-07-05 22:38:00,SystemResetWarning,0834.9,4.98,000.00,030.3,027.0,000.0,038.6,031.6,34.5,-002.5,0012.45,0008.83,0008.27
2023-07-05 22:39:00,SystemResetWarning,0834.5,5.01,000.00,030.2,025.6,000.0,038.5,031.4,34.6,-002.6,0012.39,0008.82,0008.28
2023-07-05 22:40:00,SystemResetWarning,0834.2,5.00,000.00,030.1,025.4,000.0,038.5,031.0,34.9,-002.8,0012.39,0008.79,0008.26
2023-07-05 22:41:00,SystemResetWarning,0834.0,4.99,000.00,030.0,025.7,000.0,038.5,030.9,35.2,-003.1,0012.42,0008.75,0008.23
2023-07-05 22:42:00,SystemResetWarning,0833.9,5.03,000.00,030.1,026.1,000.0,038.5,031.1,35.0,-003.4,0012.62,0008.79,0008.24
2023-07-05 22:43:00,SystemResetWarning,0833.9,4.97,000.00,030.3,026.5,000.0,038.5,031.2,34.6,-003.4,0012.70,0008.83,0008.25
2023-07-05 22:44:00,SystemResetWarning,0834.0,5.01,000.00,030.5,026.9,000.0,038.5,031.3,34.3,-003.6,0012.80,0008.85,0008.24
2023-07-05 22:45:00,SystemResetWarning,0834.2,5.00,000.00,030.5,027.2,000.0,038.6,031.3,34.1,-003.5,0012.72,0008.82,0008.22
2023-07-05 22:46:00,SystemResetWarning,0834.4,4.99,000.00,030.6,027.5,000.0,038.6,031.3,34.1,-003.5,0012.69,0008.77,0008.18
2023-07-05 22:47:00,SystemResetWarning,0834.8,5.00,000.00,030.6,027.7,000.0,038.7,031.3,34.1,-003.5,0012.62,0008.73,0008.13
2023-07-05 22:48:00,SystemResetWarning,0834.9,5.00,000.00,030.6,027.9,000.0,038.7,031.4,34.0,-003.5,0012.49,0008.66,0008.08
2023-07-05 22:49:00,SystemResetWarning,0835.2,5.00,000.00,030.6,028.0,000.0,038.7,031.4,33.9,-003.4,0012.40,0008.62,0008.06
2023-07-05 22:50:00,SystemResetWarning,0834.9,5.00,000.00,030.7,028.1,000.0,038.8,031.4,33.9,-003.3,0012.70,0008.59,0008.02
2023-07-05 22:51:00,SystemResetWarning,0834.9,5.00,000.00,030.7,028.2,000.0,038.8,031.4,33.8,-003.2,0012.87,0008.55,0007.97
2023-07-05 22:52:00,SystemResetWarning,0835.0,5.00,000.00,030.7,028.3,000.0,038.8,031.5,33.6,-003.0,0012.81,0008.56,0007.96
2023-07-05 22:53:00,SystemResetWarning,0835.3,5.00,000.00,030.7,028.4,000.0,038.9,031.5,33.6,-002.8,0012.60,0008.54,0007.95
2023-07-05 22:54:00,SystemResetWarning,0834.9,5.00,000.00,030.7,028.4,000.0,038.9,031.5,33.5,-002.6,0012.45,0008.52,0007.95
2023-07-05 22:55:00,SystemResetWarning,0834.9,5.00,000.00,030.7,028.5,000.0,038.9,031.5,33.6,-002.3,0012.37,0008.54,0007.97
2023-07-05 22:56:00,SystemResetWarning,0835.3,5.00,000.00,030.7,028.5,000.0,038.9,031.5,33.6,-002.3,0012.60,0008.58,0008.00
2023-07-05 22:57:00,SystemResetWarning,0835.0,5.00,000.00,030.7,028.5,000.0,039.0,031.6,33.6,-002.4,0013.07,0008.66,0008.07
2023-07-05 22:58:00,SystemResetWarning,0835.1,5.00,000.00,030.7,028.6,000.0,039.0,031.6,33.5,-002.4,0013.23,0008.76,0008.17
2023-07-05 22:59:00,SystemResetWarning,0835.3,5.00,000.00,030.7,028.6,000.0,039.0,031.6,33.6,-002.4,0013.36,0008.85,0008.25
